Previsão horária em Centropoligon

Hoje, 29 Julho, Quinta-feira

Tempo Temperatura Precipitação Vento Pressão Humidade
00:00 +15°C° 0 mm 1 m/s 745 mmHg 66%
01:00 +15°C° 0 mm 1 m/s 745 mmHg 66%
02:00 +14°C° 0 mm 0 m/s 745 mmHg 67%
03:00 +14°C° 0 mm 0 m/s 745 mmHg 68%
04:00 +14°C° 0 mm 0 m/s 745 mmHg 69%
05:00 +15°C° 0 mm 1 m/s 745 mmHg 69%
06:00 +15°C° 0 mm 1 m/s 745 mmHg 68%
07:00 +16°C° 0 mm 1 m/s 745 mmHg 67%
08:00 +18°C° 0 mm 1 m/s 745 mmHg 66%
09:00 +18°C° 0 mm 1 m/s 745 mmHg 65%
10:00 +19°C° 0 mm 1 m/s 745 mmHg 60%
11:00 +20°C° 0 mm 1 m/s 745 mmHg 55%
12:00 +22°C° 0 mm 1 m/s 745 mmHg 50%
13:00 +22°C° 0 mm 1 m/s 745 mmHg 48%
14:00 +22°C° 0 mm 1 m/s 744 mmHg 47%
15:00 +23°C° 0 mm 1 m/s 744 mmHg 46%
16:00 +22°C° 0 mm 1 m/s 744 mmHg 49%
17:00 +22°C° 0 mm 1 m/s 744 mmHg 53%
18:00 +22°C° 0 mm 1 m/s 744 mmHg 56%
19:00 +20°C° 0 mm 1 m/s 744 mmHg 61%
20:00 +18°C° 0 mm 1 m/s 744 mmHg 66%
21:00 +15°C° 0 mm 1 m/s 744 mmHg 71%
22:00 +14°C° 0 mm 1 m/s 745 mmHg 72%
23:00 +14°C° 0 mm 1 m/s 745 mmHg 73%

Amanhã, 30 Julho, Sexta-feira

Tempo Temperatura Precipitação Vento Pressão Humidade
00:00 +13°C° 0 mm 1 m/s 745 mmHg 73%
01:00 +13°C° 0 mm 1 m/s 745 mmHg 75%
02:00 +12°C° 0 mm 1 m/s 745 mmHg 77%
03:00 +12°C° 0 mm 1 m/s 745 mmHg 79%
04:00 +13°C° 0 mm 1 m/s 745 mmHg 77%
05:00 +14°C° 0 mm 1 m/s 745 mmHg 74%
06:00 +14°C° 0 mm 1 m/s 745 mmHg 72%
07:00 +16°C° 0 mm 1 m/s 745 mmHg 65%
08:00 +19°C° 0 mm 1 m/s 745 mmHg 57%
09:00 +21°C° 0 mm 1 m/s 745 mmHg 49%
10:00 +23°C° 0 mm 2 m/s 745 mmHg 45%
11:00 +24°C° 0 mm 2 m/s 745 mmHg 40%
12:00 +25°C° 0 mm 2 m/s 745 mmHg 35%
13:00 +25°C° 0 mm 1 m/s 745 mmHg 35%
14:00 +25°C° 0 mm 1 m/s 745 mmHg 35%
15:00 +26°C° 0 mm 1 m/s 745 mmHg 34%
16:00 +25°C° 0 mm 1 m/s 745 mmHg 41%
17:00 +24°C° 0 mm 1 m/s 745 mmHg 47%
18:00 +24°C° 0 mm 1 m/s 745 mmHg 53%
19:00 +20°C° 1 mm 2 m/s 745 mmHg 66%
20:00 +18°C° 1 mm 2 m/s 746 mmHg 78%
21:00 +16°C° 1 mm 3 m/s 746 mmHg 91%
22:00 +14°C° 0.5 mm 3 m/s 746 mmHg 93%
23:00 +14°C° 0.5 mm 2 m/s 747 mmHg 94%

Depois de amanhã, 31 Julho, Sábado

Tempo Temperatura Precipitação Vento Pressão Humidade
00:00 +13°C° 0.5 mm 2 m/s 747 mmHg 96%
01:00 +13°C° 0 mm 2 m/s 747 mmHg 96%
02:00 +12°C° 0 mm 2 m/s 748 mmHg 95%
03:00 +10°C° 0 mm 2 m/s 748 mmHg 95%
04:00 +11°C° 0 mm 1 m/s 748 mmHg 94%
05:00 +12°C° 0 mm 1 m/s 749 mmHg 93%
06:00 +12°C° 0 mm 1 m/s 749 mmHg 92%
07:00 +15°C° 0 mm 1 m/s 749 mmHg 80%
08:00 +17°C° 0 mm 2 m/s 750 mmHg 69%
09:00 +19°C° 0 mm 2 m/s 750 mmHg 57%
10:00 +20°C° 0 mm 2 m/s 750 mmHg 55%
11:00 +20°C° 0 mm 2 m/s 750 mmHg 53%
12:00 +21°C° 0 mm 2 m/s 749 mmHg 51%
13:00 +23°C° 0 mm 2 m/s 749 mmHg 46%
14:00 +25°C° 0 mm 1 m/s 749 mmHg 42%
15:00 +26°C° 0 mm 1 m/s 749 mmHg 38%
16:00 +25°C° 0 mm 1 m/s 749 mmHg 45%
17:00 +24°C° 0 mm 1 m/s 748 mmHg 51%
18:00 +23°C° 0 mm 1 m/s 748 mmHg 58%
19:00 +22°C° 0 mm 1 m/s 748 mmHg 63%
20:00 +20°C° 0 mm 1 m/s 748 mmHg 69%
21:00 +18°C° 0 mm 1 m/s 748 mmHg 74%
22:00 +16°C° 0 mm 1 m/s 748 mmHg 76%
23:00 +16°C° 0 mm 1 m/s 748 mmHg 77%

1 Agosto, Domingo

Tempo Temperatura Precipitação Vento Pressão Humidade
00:00 +15°C° 0 mm 1 m/s 748 mmHg 79%
01:00 +15°C° 0 mm 1 m/s 747 mmHg 78%
02:00 +15°C° 0 mm 2 m/s 747 mmHg 77%
03:00 +15°C° 0 mm 2 m/s 747 mmHg 76%
04:00 +15°C° 0 mm 2 m/s 747 mmHg 75%
05:00 +15°C° 0 mm 1 m/s 746 mmHg 74%
06:00 +16°C° 0 mm 1 m/s 746 mmHg 73%
07:00 +16°C° 0 mm 1 m/s 746 mmHg 72%
08:00 +18°C° 0 mm 1 m/s 746 mmHg 71%
09:00 +18°C° 0 mm 1 m/s 746 mmHg 71%
10:00 +18°C° 0.1 mm 1 m/s 746 mmHg 75%
11:00 +18°C° 0.1 mm 1 m/s 746 mmHg 79%
12:00 +18°C° 0.1 mm 1 m/s 746 mmHg 83%
13:00 +19°C° 0.1 mm 1 m/s 746 mmHg 75%
14:00 +21°C° 0.1 mm 1 m/s 746 mmHg 67%
15:00 +23°C° 0.1 mm 1 m/s 745 mmHg 59%
16:00 +22°C° 0.3 mm 1 m/s 745 mmHg 67%
17:00 +21°C° 0.3 mm 1 m/s 745 mmHg 75%
18:00 +20°C° 0.3 mm 1 m/s 745 mmHg 82%
19:00 +19°C° 0.1 mm 1 m/s 745 mmHg 87%
20:00 +16°C° 0.1 mm 1 m/s 745 mmHg 91%
21:00 +15°C° 0.1 mm 1 m/s 745 mmHg 95%
22:00 +13°C° 0 mm 0 m/s 745 mmHg 96%
23:00 +13°C° 0 mm 0 m/s 745 mmHg 96%

2 Agosto, Segunda-feira

Tempo Temperatura Precipitação Vento Pressão Humidade
00:00 +12°C° 0 mm 0 m/s 744 mmHg 96%
01:00 +12°C° 0 mm 0 m/s 744 mmHg 97%
02:00 +12°C° 0 mm 0 m/s 744 mmHg 97%
03:00 +12°C° 0 mm 1 m/s 744 mmHg 97%
04:00 +12°C° 0 mm 0 m/s 744 mmHg 97%
05:00 +13°C° 0 mm 0 m/s 744 mmHg 96%
06:00 +13°C° 0 mm 0 m/s 744 mmHg 96%
07:00 +15°C° 0 mm 0 m/s 744 mmHg 88%
08:00 +17°C° 0 mm 0 m/s 744 mmHg 81%
09:00 +19°C° 0 mm 0 m/s 744 mmHg 73%
10:00 +20°C° 0.1 mm 0 m/s 743 mmHg 64%
11:00 +22°C° 0.1 mm 0 m/s 743 mmHg 54%
12:00 +25°C° 0.1 mm 1 m/s 742 mmHg 44%
13:00 +26°C° 0 mm 1 m/s 742 mmHg 41%
14:00 +26°C° 0 mm 1 m/s 742 mmHg 38%
15:00 +26°C° 0 mm 1 m/s 741 mmHg 35%
16:00 +26°C° 0 mm 1 m/s 741 mmHg 40%
17:00 +25°C° 0 mm 1 m/s 741 mmHg 46%
18:00 +24°C° 0 mm 1 m/s 741 mmHg 52%
19:00 +22°C° 0 mm 1 m/s 741 mmHg 61%
20:00 +19°C° 0 mm 1 m/s 741 mmHg 70%
21:00 +16°C° 0 mm 2 m/s 741 mmHg 79%
22:00 +15°C° 0 mm 2 m/s 741 mmHg 83%
23:00 +14°C° 0 mm 1 m/s 740 mmHg 88%

3 Agosto, Terça-feira

Tempo Temperatura Precipitação Vento Pressão Humidade
00:00 +13°C° 0 mm 1 m/s 740 mmHg 92%
01:00 +12°C° 0 mm 1 m/s 740 mmHg 93%
02:00 +12°C° 0 mm 1 m/s 740 mmHg 94%
03:00 +12°C° 0 mm 1 m/s 740 mmHg 95%
04:00 +13°C° 0 mm 1 m/s 740 mmHg 91%
05:00 +13°C° 0 mm 1 m/s 740 mmHg 87%
06:00 +14°C° 0 mm 1 m/s 740 mmHg 84%
07:00 +16°C° 0 mm 1 m/s 740 mmHg 75%
08:00 +19°C° 0 mm 1 m/s 740 mmHg 66%
09:00 +22°C° 0 mm 1 m/s 740 mmHg 57%
10:00 +23°C° 0 mm 1 m/s 740 mmHg 52%
11:00 +25°C° 0 mm 1 m/s 740 mmHg 47%
12:00 +26°C° 0 mm 1 m/s 740 mmHg 42%
13:00 +26°C° 0 mm 1 m/s 740 mmHg 41%
14:00 +27°C° 0 mm 1 m/s 741 mmHg 39%
15:00 +27°C° 0 mm 1 m/s 741 mmHg 37%
16:00 +26°C° 0 mm 1 m/s 741 mmHg 45%
17:00 +24°C° 0 mm 1 m/s 741 mmHg 53%
18:00 +23°C° 0 mm 1 m/s 741 mmHg 61%
19:00 +22°C° 0 mm 1 m/s 741 mmHg 65%
20:00 +20°C° 0 mm 1 m/s 741 mmHg 69%
21:00 +19°C° 0 mm 1 m/s 741 mmHg 73%
22:00 +19°C° 0 mm 1 m/s 742 mmHg 75%
23:00 +18°C° 0 mm 1 m/s 742 mmHg 78%
Mostrar mais

Necessitamos do seu Consentimento

A Meteoprog e os seus Fornecedores de Serviços podem armazenar e aceder a dados pessoais como cookies, identificadores do dispositivo ou outras tecnologias semelhantes existentes no seu dispositivo e processar estes dados para personalizar conteúdos e anúncios, assim como funcionalidades nas redes sociais e análise de tráfego.

  • Armazenar e/ou aceder a informações no seu dispositivo

    Os cookies, identificadores do dispositivo ou outras informações podem ser armazenados ou acedidos no seu dispositivo, para os fins acima indicados.

  • Anúncios e conteúdos personalizados, medição de anúncios e conteúdos, dados sobre o público-alvo e desenvolvimento de produtos

    Os anúncios e os conteúdos podem ser personalizados com base num perfil. Podem ser adicionados dados adicionais para uma maior personalização dos anúncios e dos conteúdos. A eficácia dos anúncios e dos conteúdos pode ser medida. Podem ser obtidas informações sobre o público que visualizou os anúncios e os conteúdos. Estes dados podem ser usados para desenvolver ou melhorar sistemas, softwares ou a experiência do utilizador.

Ao clicar em "Eu concordo”, permitirá o uso de cookies, identificadores do dispositivo e web beacons mencionados ou outras tecnologias semelhantes. As configurações do navegador do seu dispositivo podem ser alteradas.

Para certos fins, podem ser invocados interesses legítimos ao invés de consentimento. Pode ler mais informação sobre este assunto na nossa Política de Privacidade e Cookies.